Weather Roundup
Issued by NWS Chicago, IL

Home | Current Version | Previous Version | Graphics & Text | Print | Product List | Glossary On
Versions: 1 2 3 4 5 6 7 8 9 10 11 12 13 14 15 16 17 18 19 20 21 22 23 24 25 26 27 28 29 30 31 32 33 34 35 36 37 38 39 40 41 42 43 44 45 46 47 48 49 50
000
NZUS59 KLOT 031800
HRRLOT
CHIHRRLOT ALL

CHICAGO AREA WEATHER ROUNDUP
NATIONAL WEATHER SERVICE CHICAGO/ROMEOVILLE IL
100 PM CDT MON AUG 03 2015

NOTE: "FAIR" INDICATES FEW OR NO CLOUDS BELOW 12,000 FEET WITH NO
SIGNIFICANT WEATHER AND/OR OBSTRUCTIONS TO VISIBILITY.

* THESE STATIONS ARE NOT UNDER NWS QUALITY CONTROL. THEY ALSO MAY NOT
  REPORT WEATHER SUCH AS PRECIPITATION OR FOG.

ILZ005-006-012>014-019>023-031900-
NORTHEAST ILLINOIS

CITY           SKY/WX    TMP DP  RH WIND       PRES   REMARKS
OHARE          MOSUNNY   80  49  33 W14       29.86S
6HR MIN TEMP:  69; 6HR MAX TEMP:  80;

MIDWAY         MOSUNNY   82  51  34 W16G23    29.86S HX  81
6HR MIN TEMP:  71; 6HR MAX TEMP:  82;

AURORA         SUNNY     79  53  40 NW10      29.89S
6HR MIN TEMP:  66; 6HR MAX TEMP:  79;

JOLIET*        SUNNY     82  58  43 NW6       29.88R HX  82
WAUKEGAN       SUNNY     78  49  35 NW8G20    29.85F
6HR MIN TEMP:  65; 6HR MAX TEMP:  78;

DUPAGE AIRPORT SUNNY     79  49  34 NW15      29.88R
6HR MIN TEMP:  68; 6HR MAX TEMP:  79;

WHEELING       NOT AVBL
LEWIS AIRPORT* SUNNY     78  56  47 NW8G20    29.87S
NORTHERLY IS     N/A     80  49  33 NW2         N/A
$$

WIZ051-052-058>065-066-070>072-031900-
SOUTHEAST WISCONSIN

CITY           SKY/WX    TMP DP  RH WIND       PRES   REMARKS
MILWAUKEE      MOSUNNY   79  43  27 W18G28    29.84S
6HR MIN TEMP:  67; 6HR MAX TEMP:  79;

KENOSHA*       SUNNY     77  50  38 NW10      29.86S
RACINE*        SUNNY     79  46  31 NW15G25   29.86S
WAUKESHA       MOSUNNY   73  43  33 NW18G29   29.87R
$$

INZ001>003-010>013-019-020-031900-
NORTHWEST INDIANA

CITY           SKY/WX    TMP DP  RH WIND       PRES   REMARKS
GARY*          MOSUNNY   77  59  53 N12       29.87R
MICHIGAN CITY* NOT AVBL
RENSSELAER*    NOT AVBL
$$

LMZ740>746-031900-
SOUTHERN LAKE MICHIGAN

STATION/POSITION TIME  SKY/WX   TEMP WIND        PRES    VSBY
                                AIR  DIR/SP/G
                 (UTC)          (F)  (DEG/KT/KT) (MB)    (MI)
HARRISON CRIB    1700            72  360/ 11/ 13   N/A
BURNHAM HARBOR   1700            78  330/  2/  9   N/A
CALUMET HARBOR   1700            75   10/  9/ 12   N/A
BURNS HARBOR     1700            71  360/  7/  9 1011.9S
MICHIGAN CITY    1700            72  310/  9/ 11   N/A
$$

ABBREVIATIONS USED IN REMARKS
   TC - TEMPERATURE IN CELSIUS
  WCI - WIND CHILL INDEX
   HX - HEAT INDEX
  VSB - VISIBILITY
$$


USA.gov is the U.S. government's official web portal to all federal, state and local government web resources and services.